[[{"header":{"parameterUnit":"m.s-1","parameterCategory":1,"la1":30.2991,"la2":30.254,"lo1":-89.0895,"lo2":-89.0444,"dy":0.0017,"dx":0.0017,"nx":28,"ny":28,"refTime":"2024-07-18T21:00:00:Z","depth":0,"parameterNumber":2,"parameterNumberName":"U-component_of_WINDS"},"data":[0,0,0,0,0,0,0,0,0,0,0,0,0,0,0,0,0,0,0,0,0,0,0,0,0,0,0,0,0,0,0,0,0,0,0,0,0,0,0,0,0,0,0,0,0,0,0,0,0,0,0,0,0,0,0,0,0,0,2.014,2.014,0,2.015,2.015,2.015,2.0138,2.0138,2.0137,2.0137,2.0148,2.0148,2.0149,0,0,0,0,0,0,0,0,0,0,0,0,0,2.0109,2.0109,2.014,2.014,2.014,2.015,2.015,2.015,2.0138,2.0138,2.0137,2.0137,2.0148,2.0148,2.0149,0,0,0,0,0,0,0,0,0,0,0,0,0,2.0121,2.011,2.014,2.0135,2.0135,2.015,2.015,2.015,2.0138,2.0138,2.0137,2.0136,2.0147,2.0148,2.0149,2.0169,0,0,2.0153,2.0153,0,0,0,0,0,0,0,0,2.012,2.0122,2.0136,2.0136,2.0135,2.0142,2.0143,2.0157,2.0139,2.0137,2.0137,2.0136,2.0146,2.0148,2.0151,2.017,2.017,2.0153,2.0153,2.0154,2.0154,0,0,0,0,0,0,0,2.0119,2.0122,2.0144,2.0136,2.0136,2.0132,2.0133,2.0146,2.0145,2.0137,2.0136,2.0138,2.0146,2.015,2.0151,2.0171,2.0153,2.0154,2.0154,2.0155,2.0204,2.0204,0,0,0,0,0,0,2.0119,2.0121,2.0144,2.0144,2.0126,2.0133,2.0134,2.0141,2.0145,2.0145,2.0138,2.0137,2.0148,2.015,2.0151,2.0173,2.0154,2.0155,2.0155,2.0203,2.0204,2.0205,0,0,0,0,0,0,2.0119,2.0121,2.0143,2.0132,2.0135,2.0135,2.0142,2.0141,2.0145,2.0146,2.0146,2.0142,2.0148,2.015,2.0164,2.0174,2.0155,2.0156,2.0202,2.0203,2.0204,2.0219,0,0,0,0,0,0,2.0118,2.0121,2.0129,2.0133,2.0135,2.0156,2.0142,2.0142,2.0147,2.0145,2.015,2.015,2.0148,2.0163,2.0165,2.0175,2.0157,2.0201,2.0203,2.0204,2.0217,2.022,2.0222,0,0,0,0,0,2.0117,2.0134,2.013,2.0133,2.0146,2.0157,2.0159,2.0156,2.0148,2.0155,2.0155,2.015,2.0172,2.0164,2.0167,2.0177,2.0201,2.0202,2.0204,2.0216,2.0219,2.0222,0,0,0,0,0,0,2.0132,2.0134,2.013,2.0149,2.0152,2.0155,2.0165,2.0159,2.0166,2.0165,2.0161,2.0162,2.0176,2.0178,2.017,2.0195,2.0185,2.0187,2.0194,2.0197,2.0199,2.0198,2.0158,0,0,0,0,0,2.0138,2.0147,2.0148,2.0164,2.0167,2.0165,2.017,2.0167,2.0171,2.0173,2.0175,2.0179,2.0186,2.0192,2.0199,2.0217,2.0217,2.0225,2.0228,2.023,2.0232,2.0239,2.0242,2.0209,2.0209,2.0209,0,0,2.015,2.0152,2.0158,2.0167,2.017,2.0179,2.0167,2.0177,2.0184,2.0175,2.0188,2.0189,2.0193,2.0209,2.0216,2.0211,2.024,2.0232,2.0233,2.0234,2.0241,2.0244,2.0247,2.021,2.021,2.021,0,0,2.0175,2.0178,2.0191,2.0194,2.0197,2.0196,2.0199,2.0202,2.0202,2.0215,2.0207,2.0215,2.0229,2.0231,2.0235,2.0258,2.0253,2.0261,2.0274,2.0281,2.0284,2.0286,2.0293,2.0295,2.0263,2.0263,2.0263,0,2.0189,2.0202,2.0198,2.0208,2.0212,2.0204,2.0216,2.0218,2.0225,2.0227,2.0221,2.0237,2.024,2.0255,2.026,2.0264,2.0266,2.026,2.0284,2.0286,2.0288,2.0294,2.0297,2.0264,2.0264,2.0263,2.0263,0,2.0218,2.0228,2.0237,2.0242,2.0247,2.0258,2.0255,2.026,2.0256,2.0255,2.0267,2.027,2.0276,2.028,2.0277,2.0294,2.029,2.0284,2.0274,2.0292,2.0298,2.03,2.0265,2.0265,2.0264,2.0264,0,0,2.0255,2.0256,2.026,2.0261,2.0263,2.027,2.028,2.0286,2.029,2.0294,2.0301,2.0312,2.0306,2.0309,2.0306,2.0313,2.0329,2.0305,2.0305,2.0308,2.0345,2.0349,2.0352,2.0325,2.0326,2.0326,2.0345,0,2.0279,2.0296,2.0292,2.0308,2.0315,2.0306,2.0315,2.0317,2.0316,2.0321,2.032,2.0327,2.0319,2.0321,2.0327,2.0326,2.0336,2.0324,2.0331,2.0331,2.0329,2.0356,2.036,2.0378,2.0347,2.0347,2.0348,0,2.031,2.0314,2.0331,2.033,2.0333,2.034,2.0344,2.035,2.0351,2.035,2.0353,2.0348,2.0356,2.0346,2.0357,2.0349,2.0351,2.0351,2.0352,2.0352,2.034,2.0355,2.0384,2.0386,2.0352,2.0351,2.0351,0,2.0332,2.0342,2.0353,2.0354,2.0354,2.0359,2.036,2.036,2.0363,2.0367,2.0368,2.0373,2.0375,2.0378,2.0374,2.0367,2.0385,2.0375,2.0383,2.0383,2.0387,2.0387,2.0415,2.039,2.039,2.039,2.039,0,2.0359,2.0369,2.0363,2.0369,2.038,2.0374,2.0385,2.0384,2.0385,2.039,2.0383,2.0388,2.0383,2.0388,2.0384,2.0393,2.0395,2.0393,2.0392,2.0393,2.0393,2.0394,2.0392,2.0391,2.0391,2.0391,2.0391,0,2.0386,2.0382,2.0393,2.0391,2.0391,2.0399,2.0397,2.0403,2.04,2.0407,2.0409,2.0405,2.041,2.0406,2.0411,2.0409,2.042,2.0417,2.0419,2.0418,2.0426,2.0424,2.0455,2.0458,2.0432,2.0433,2.0433,0,2.0403,2.041,2.0409,2.0412,2.0412,2.0417,2.0419,2.0414,2.0417,2.0417,2.0423,2.0427,2.0429,2.0437,2.0435,2.0438,2.0435,2.0446,2.0436,2.0436,2.0434,2.0433,2.0433,2.0447,2.0448,2.0448,2.0448,0,2.0432,2.0429,2.0433,2.0436,2.0438,2.044,2.0442,2.0444,2.0438,2.0442,2.0446,2.0448,2.0452,2.0456,2.0458,2.0458,2.0451,2.0451,2.0453,2.0454,2.0454,2.0452,2.0423,2.0451,2.045,2.045,2.045,2.045,2.0454,2.0459,2.0458,2.0462,2.0462,2.0463,2.0467,2.0465,2.0468,2.047,2.0467,2.0472,2.0471,2.0473,2.0473,2.0477,2.0472,2.0475,2.0476,2.0477,2.0477,2.0454,2.0477,2.0477,2.0477,2.0477,2.0477,0,2.0481,2.048,2.0483,2.0484,2.0487,2.0481,2.0481,2.0484,2.0488,2.0488,2.049,2.0494,2.0497,2.0494,2.0496,2.0499,2.0496,2.05,2.0499,2.0499,2.0482,2.0479,2.0502,2.0502,2.0502,2.0502,2.0502,2.0502,2.0496,2.0504,2.05,2.0508,2.0506,2.051,2.0511,2.0511,2.0511,2.0515,2.0517,2.0515,2.0514,2.0515,2.0517,2.0516,2.0517,2.0521,2.0519,2.0503,2.05,2.0498,2.0496,2.0522,2.0522,2.0536,2.0536,2.0536]},{"header":{"parameterUnit":"m.s-1","parameterCategory":1,"la1":30.2991,"la2":30.254,"lo1":-89.0895,"lo2":-89.0444,"dy":0.0017,"dx":0.0017,"nx":28,"ny":28,"refTime":"2024-07-18T21:00:00:Z","depth":0,"parameterNumber":3,"parameterNumberName":"V-component_of_WINDS"},"data":[0,0,0,0,0,0,0,0,0,0,0,0,0,0,0,0,0,0,0,0,0,0,0,0,0,0,0,0,0,0,0,0,0,0,0,0,0,0,0,0,0,0,0,0,0,0,0,0,0,0,0,0,0,0,0,0,0,0,4.8804,4.8803,0,4.8758,4.8758,4.8757,4.8733,4.8733,4.8733,4.8732,4.8679,4.8677,4.8676,0,0,0,0,0,0,0,0,0,0,0,0,0,4.8863,4.8862,4.8804,4.8803,4.8803,4.8759,4.8758,4.8757,4.8733,4.8733,4.8733,4.8732,4.8679,4.8677,4.8676,0,0,0,0,0,0,0,0,0,0,0,0,0,4.8829,4.8862,4.8804,4.8785,4.8783,4.8759,4.8758,4.8757,4.8733,4.8733,4.8732,4.8732,4.868,4.8678,4.8676,4.8664,0,0,4.8669,4.8668,0,0,0,0,0,0,0,0,4.8831,4.8827,4.8789,4.8787,4.8784,4.8751,4.8759,4.8726,4.8733,4.8752,4.8732,4.8732,4.8702,4.8698,4.869,4.8661,4.8659,4.8669,4.8668,4.8667,4.8666,0,0,0,0,0,0,0,4.8834,4.8829,4.8786,4.8788,4.8785,4.8777,4.8772,4.8753,4.8728,4.875,4.8748,4.8743,4.8701,4.8692,4.8688,4.8658,4.8669,4.8667,4.8666,4.8665,4.8618,4.8618,0,0,0,0,0,0,4.884,4.8831,4.8787,4.8784,4.8808,4.8776,4.8771,4.8762,4.8728,4.8723,4.8744,4.8742,4.8695,4.8691,4.8686,4.8671,4.8667,4.8665,4.8664,4.8618,4.8618,4.8618,0,0,0,0,0,0,4.8841,4.8836,4.8789,4.8807,4.8801,4.8775,4.8765,4.8761,4.8752,4.8723,4.8718,4.8739,4.8695,4.8689,4.867,4.8668,4.8664,4.8662,4.8618,4.8618,4.8618,4.8639,0,0,0,0,0,0,4.8843,4.8837,4.8834,4.8807,4.88,4.8776,4.8765,4.876,4.8749,4.8747,4.8718,4.8712,4.8695,4.8674,4.8668,4.8665,4.866,4.8618,4.8618,4.8618,4.8638,4.864,4.8641,0,0,0,0,0,4.8845,4.884,4.8834,4.8828,4.8795,4.8776,4.8771,4.8753,4.8749,4.8745,4.8726,4.8713,4.867,4.8672,4.8665,4.8662,4.8618,4.8618,4.8618,4.8638,4.8639,4.8641,0,0,0,0,0,0,4.8863,4.8836,4.8829,4.8815,4.8798,4.8771,4.8765,4.8755,4.8737,4.8736,4.8712,4.8705,4.8688,4.8673,4.8676,4.8649,4.8642,4.8641,4.866,4.8661,4.8662,4.8666,4.8659,0,0,0,0,0,4.8867,4.8855,4.883,4.882,4.8813,4.8791,4.8781,4.8769,4.8749,4.8741,4.8722,4.8701,4.8683,4.8671,4.8652,4.8636,4.8629,4.8631,4.8632,4.8633,4.8632,4.8622,4.8623,4.8618,4.8618,4.8618,0,0,4.8871,4.8855,4.8848,4.8824,4.8809,4.8796,4.8784,4.877,4.876,4.8738,4.872,4.8705,4.868,4.8663,4.8654,4.865,4.8632,4.8633,4.8635,4.8633,4.8622,4.8623,4.8623,4.8618,4.8618,4.8618,0,0,4.8873,4.886,4.8851,4.8837,4.8816,4.8802,4.88,4.8775,4.8765,4.8747,4.8731,4.8716,4.8685,4.8669,4.8656,4.8654,4.8641,4.8648,4.8654,4.8645,4.8645,4.8646,4.8644,4.8644,4.8647,4.8647,4.8647,0,4.8882,4.8863,4.8847,4.8834,4.8823,4.8806,4.8796,4.8782,4.8756,4.8748,4.8744,4.8706,4.8688,4.8666,4.8666,4.8656,4.8652,4.8651,4.8647,4.8647,4.8647,4.8645,4.8645,4.8648,4.8648,4.8648,4.8648,0,4.8874,4.8861,4.8855,4.8833,4.8822,4.881,4.879,4.878,4.8769,4.8755,4.8736,4.8714,4.8692,4.8686,4.8673,4.8662,4.866,4.8652,4.8645,4.8649,4.8647,4.8646,4.865,4.8649,4.8649,4.8649,0,0,4.8885,4.8855,4.8853,4.8843,4.882,4.8808,4.8795,4.8776,4.8767,4.875,4.8737,4.8712,4.8705,4.8691,4.8677,4.8669,4.8668,4.8662,4.8661,4.8663,4.8654,4.866,4.8659,4.866,4.866,4.866,4.8656,0,4.8883,4.8863,4.8848,4.8832,4.8819,4.8803,4.8792,4.8775,4.8761,4.8747,4.8731,4.8714,4.8706,4.8697,4.8689,4.867,4.8666,4.867,4.8646,4.8646,4.8653,4.8658,4.8664,4.8662,4.8655,4.8655,4.8654,0,4.8879,4.8865,4.8848,4.8826,4.882,4.8811,4.8792,4.8779,4.8759,4.875,4.8735,4.8721,4.8705,4.87,4.8677,4.8681,4.867,4.8659,4.8659,4.8655,4.865,4.8654,4.866,4.866,4.8653,4.8653,4.8653,0,4.8889,4.8865,4.8852,4.8844,4.8818,4.8812,4.88,4.8781,4.877,4.8753,4.8745,4.8725,4.8714,4.8698,4.8678,4.8677,4.8657,4.865,4.8647,4.8648,4.8643,4.8643,4.8647,4.8637,4.8637,4.8637,4.8637,0,4.8888,4.8878,4.8856,4.8848,4.8836,4.8819,4.8807,4.8794,4.8777,4.8765,4.8749,4.8737,4.8713,4.8697,4.8682,4.8665,4.866,4.865,4.8646,4.8651,4.8653,4.8643,4.8643,4.8637,4.8637,4.8637,4.8637,0,4.8897,4.8882,4.8867,4.8845,4.8839,4.8831,4.8811,4.8802,4.8788,4.8773,4.8768,4.8745,4.8727,4.8706,4.868,4.8669,4.8653,4.8647,4.866,4.8658,4.8656,4.8656,4.8653,4.8651,4.8644,4.8644,4.8644,0,4.8897,4.889,4.8868,4.886,4.885,4.8837,4.8827,4.8809,4.8798,4.8776,4.8769,4.875,4.8734,4.8704,4.8684,4.8664,4.8657,4.8657,4.8653,4.8659,4.8656,4.8657,4.8656,4.8658,4.8658,4.8658,4.8658,0,4.89,4.8893,4.888,4.8865,4.8854,4.884,4.8825,4.8819,4.8798,4.8787,4.8769,4.8757,4.8732,4.8712,4.869,4.8675,4.8663,4.866,4.8658,4.8663,4.8671,4.8666,4.8663,4.866,4.866,4.866,4.866,4.866,4.8904,4.8897,4.8881,4.8867,4.8855,4.8842,4.8832,4.8818,4.8804,4.8784,4.8774,4.8756,4.8736,4.8705,4.8691,4.8676,4.8672,4.8669,4.8668,4.8667,4.8669,4.8675,4.8671,4.8671,4.8671,4.8671,4.8671,0,4.8906,4.8895,4.8883,4.8864,4.8853,4.8845,4.8829,4.8819,4.8805,4.8788,4.8773,4.8753,4.8734,4.8713,4.8693,4.8684,4.8678,4.868,4.8679,4.8676,4.8674,4.8677,4.8685,4.8685,4.8685,4.8685,4.8685,4.8685,4.8905,4.8893,4.8884,4.8865,4.8854,4.8838,4.883,4.8817,4.8804,4.8783,4.8768,4.8756,4.8737,4.8715,4.8698,4.8692,4.8684,4.8688,4.868,4.8678,4.8676,4.8675,4.8679,4.8686,4.8686,4.8683,4.8683,4.8683]}]]